Details for Ryanair at EGNM




Go Back


Latest METAR
Local Time

EGNM 181320Z 23018G30KT 190V250 9999 SCT028 18/12 Q1003
18/09/2018, 14:52:22

Description
Results
Ryanair Logo
Number of Pilots based at EGNM
0 Pilots Based here
Number of Ryanair Flights Departed from EGNM
6 Flights Departed
Number of Ryanair Flights Arrived at EGNM
2 Flights Arrived
Number of Ryanair Schedules Departing from EGNM
47 Schedules
Number of Ryanair Schedules Arriving at EGNM
45 Schedules
Number of Ryanair Schedules Departing from EGNM availible today
11 Schedules Today
Number of Ryanair Schedules Arriving at EGNM availible today
10 Schedules Today
Average Landing Rate at EGNM
-197 fpm
Ryanair Average Landing Rate at EGNM
-213 fpm
Total Fuel Purchased at EGNM by Ryanair
43,136.18 kgs / 95,098.02 lbs

Pilots Based at EGNM


Pilot ID
Pilot Name
Pilot Rank
No. of Flights
No. of Flying Hours
There are no pilots assigned to this hub!   Will you be the first?
Content